When you browse on this site, cookies collect data to enhance your experience and personalize the content and advertising you see.
Visit our Privacy Policy to learn more. By continuing to use the site, you agree to this use of cookies and data.

Meteo orario Ituni

Oggi, 10 Luglio, Venerdi

Tempo Temperatura Precipitazioni Vento Pressione Umidità
00:00 +23°C° 0.9 mm 0 m/s 753 mm Hg 99%
01:00 +23°C° 0.9 mm 0 m/s 753 mm Hg 99%
02:00 +23°C° 0.9 mm 0 m/s 752 mm Hg 99%
03:00 +23°C° 0.6 mm 0 m/s 752 mm Hg 98%
04:00 +23°C° 0.6 mm 0 m/s 752 mm Hg 98%
05:00 +23°C° 0.6 mm 0 m/s 752 mm Hg 98%
06:00 +23°C° 0 mm 0 m/s 753 mm Hg 95%
07:00 +24°C° 0 mm 0 m/s 753 mm Hg 93%
08:00 +25°C° 0 mm 0 m/s 753 mm Hg 91%
09:00 +26°C° 0.1 mm 0 m/s 753 mm Hg 84%
10:00 +28°C° 0.1 mm 0 m/s 753 mm Hg 77%
11:00 +31°C° 0.1 mm 1 m/s 754 mm Hg 70%
12:00 +32°C° 0.7 mm 1 m/s 753 mm Hg 66%
13:00 +33°C° 0.7 mm 1 m/s 752 mm Hg 62%
14:00 +34°C° 0.7 mm 1 m/s 751 mm Hg 58%
15:00 +32°C° 0.4 mm 1 m/s 751 mm Hg 66%
16:00 +30°C° 0.4 mm 1 m/s 751 mm Hg 75%
17:00 +28°C° 0.4 mm 1 m/s 751 mm Hg 83%
18:00 +28°C° 0 mm 1 m/s 751 mm Hg 86%
19:00 +27°C° 0 mm 1 m/s 752 mm Hg 88%
20:00 +26°C° 0 mm 1 m/s 752 mm Hg 91%
21:00 +26°C° 0 mm 1 m/s 752 mm Hg 91%
22:00 +26°C° 0 mm 1 m/s 753 mm Hg 92%
23:00 +26°C° 0 mm 1 m/s 753 mm Hg 93%

Domani, 11 Luglio, Sabato

Tempo Temperatura Precipitazioni Vento Pressione Umidità
00:00 +24°C° 0 mm 0 m/s 753 mm Hg 94%
01:00 +23°C° 0 mm 0 m/s 752 mm Hg 95%
02:00 +23°C° 0 mm 0 m/s 752 mm Hg 96%
03:00 +23°C° 0.2 mm 0 m/s 752 mm Hg 96%
04:00 +23°C° 0.2 mm 0 m/s 752 mm Hg 97%
05:00 +23°C° 0.2 mm 0 m/s 752 mm Hg 97%
06:00 +26°C° 0 mm 1 m/s 752 mm Hg 93%
07:00 +27°C° 0 mm 1 m/s 752 mm Hg 89%
08:00 +28°C° 0 mm 1 m/s 753 mm Hg 84%
09:00 +29°C° 0.2 mm 1 m/s 753 mm Hg 76%
10:00 +31°C° 0.2 mm 1 m/s 753 mm Hg 67%
11:00 +34°C° 0.2 mm 2 m/s 753 mm Hg 58%
12:00 +35°C° 0.2 mm 2 m/s 752 mm Hg 55%
13:00 +35°C° 0.2 mm 2 m/s 751 mm Hg 52%
14:00 +35°C° 0.2 mm 1 m/s 750 mm Hg 49%
15:00 +34°C° 0.1 mm 1 m/s 750 mm Hg 53%
16:00 +34°C° 0.1 mm 1 m/s 750 mm Hg 56%
17:00 +33°C° 0.1 mm 1 m/s 750 mm Hg 60%
18:00 +31°C° 0.3 mm 1 m/s 750 mm Hg 70%
19:00 +29°C° 0.3 mm 2 m/s 751 mm Hg 79%
20:00 +27°C° 0.3 mm 2 m/s 752 mm Hg 89%
21:00 +26°C° 0.2 mm 2 m/s 752 mm Hg 91%
22:00 +26°C° 0.2 mm 1 m/s 753 mm Hg 93%
23:00 +25°C° 0.2 mm 1 m/s 753 mm Hg 95%

Dopodomani, 12 Luglio, Domenica

Tempo Temperatura Precipitazioni Vento Pressione Umidità
00:00 +25°C° 0.3 mm 1 m/s 753 mm Hg 96%
01:00 +25°C° 0.3 mm 1 m/s 752 mm Hg 97%
02:00 +25°C° 0.3 mm 1 m/s 752 mm Hg 98%
03:00 +24°C° 0.2 mm 1 m/s 752 mm Hg 98%
04:00 +22°C° 0.2 mm 0 m/s 752 mm Hg 98%
05:00 +22°C° 0.2 mm 0 m/s 752 mm Hg 98%
06:00 +25°C° 0.3 mm 1 m/s 752 mm Hg 96%
07:00 +26°C° 0.3 mm 1 m/s 753 mm Hg 94%
08:00 +27°C° 0.3 mm 1 m/s 753 mm Hg 92%
09:00 +28°C° 0.9 mm 1 m/s 753 mm Hg 86%
10:00 +29°C° 0.9 mm 2 m/s 753 mm Hg 79%
11:00 +31°C° 0.9 mm 2 m/s 753 mm Hg 73%
12:00 +31°C° 1 mm 2 m/s 752 mm Hg 75%
13:00 +31°C° 1 mm 2 m/s 752 mm Hg 78%
14:00 +30°C° 1 mm 2 m/s 751 mm Hg 80%
15:00 +30°C° 1.1 mm 2 m/s 751 mm Hg 83%
16:00 +29°C° 1.1 mm 2 m/s 751 mm Hg 86%
17:00 +28°C° 1.1 mm 2 m/s 751 mm Hg 89%
18:00 +27°C° 1.1 mm 1 m/s 751 mm Hg 92%
19:00 +26°C° 1.1 mm 1 m/s 752 mm Hg 94%
20:00 +25°C° 1.1 mm 1 m/s 752 mm Hg 97%
21:00 +25°C° 1.1 mm 1 m/s 753 mm Hg 97%
22:00 +25°C° 1.1 mm 1 m/s 753 mm Hg 97%
23:00 +25°C° 1.1 mm 1 m/s 753 mm Hg 97%

13 Luglio, Lunedi

Tempo Temperatura Precipitazioni Vento Pressione Umidità
00:00 +23°C° 0.2 mm 0 m/s 753 mm Hg 98%
01:00 +23°C° 0.2 mm 0 m/s 752 mm Hg 98%
02:00 +23°C° 0.2 mm 0 m/s 752 mm Hg 98%
03:00 +22°C° 0.1 mm 0 m/s 752 mm Hg 98%
04:00 +22°C° 0.1 mm 0 m/s 752 mm Hg 98%
05:00 +22°C° 0.1 mm 0 m/s 752 mm Hg 98%
06:00 +23°C° 0 mm 0 m/s 753 mm Hg 96%
07:00 +24°C° 0 mm 0 m/s 753 mm Hg 94%
08:00 +27°C° 0 mm 1 m/s 754 mm Hg 92%
09:00 +28°C° 0.6 mm 1 m/s 754 mm Hg 89%
10:00 +29°C° 0.6 mm 1 m/s 753 mm Hg 86%
11:00 +30°C° 0.6 mm 1 m/s 753 mm Hg 82%
12:00 +30°C° 0.9 mm 1 m/s 753 mm Hg 80%
13:00 +31°C° 0.9 mm 1 m/s 752 mm Hg 78%
14:00 +31°C° 0.9 mm 1 m/s 752 mm Hg 76%
15:00 +30°C° 0.8 mm 1 m/s 751 mm Hg 80%
16:00 +30°C° 0.8 mm 1 m/s 751 mm Hg 84%
17:00 +29°C° 0.8 mm 1 m/s 751 mm Hg 88%
18:00 +28°C° 1 mm 1 m/s 752 mm Hg 91%
19:00 +27°C° 1 mm 1 m/s 752 mm Hg 94%
20:00 +25°C° 1 mm 1 m/s 753 mm Hg 96%
21:00 +25°C° 0.1 mm 1 m/s 753 mm Hg 97%
22:00 +23°C° 0.1 mm 0 m/s 753 mm Hg 98%
23:00 +23°C° 0.1 mm 0 m/s 754 mm Hg 98%

14 Luglio, Martedi

Tempo Temperatura Precipitazioni Vento Pressione Umidità
00:00 +23°C° 0 mm 0 m/s 753 mm Hg 98%
01:00 +23°C° 0 mm 0 m/s 753 mm Hg 98%
02:00 +22°C° 0 mm 0 m/s 752 mm Hg 98%
03:00 +22°C° 0 mm 0 m/s 752 mm Hg 98%
04:00 +22°C° 0 mm 0 m/s 752 mm Hg 99%
05:00 +22°C° 0 mm 0 m/s 752 mm Hg 99%
06:00 +23°C° 0 mm 0 m/s 753 mm Hg 95%
07:00 +24°C° 0 mm 0 m/s 753 mm Hg 92%
08:00 +25°C° 0 mm 0 m/s 754 mm Hg 89%
09:00 +27°C° 0.1 mm 0 m/s 753 mm Hg 79%
10:00 +29°C° 0.1 mm 0 m/s 753 mm Hg 68%
11:00 +33°C° 0.1 mm 1 m/s 753 mm Hg 58%
12:00 +32°C° 1.2 mm 1 m/s 753 mm Hg 66%
13:00 +31°C° 1.2 mm 1 m/s 752 mm Hg 73%
14:00 +30°C° 1.2 mm 1 m/s 751 mm Hg 81%
15:00 +30°C° 0.6 mm 1 m/s 751 mm Hg 82%
16:00 +30°C° 0.6 mm 1 m/s 751 mm Hg 84%
17:00 +29°C° 0.6 mm 1 m/s 751 mm Hg 85%
18:00 +28°C° 0.2 mm 1 m/s 752 mm Hg 88%
19:00 +27°C° 0.2 mm 1 m/s 752 mm Hg 91%
20:00 +25°C° 0.2 mm 1 m/s 753 mm Hg 95%
21:00 +25°C° 0.2 mm 1 m/s 753 mm Hg 96%
22:00 +23°C° 0.2 mm 0 m/s 753 mm Hg 96%
23:00 +23°C° 0.2 mm 0 m/s 753 mm Hg 97%

15 Luglio, Mercoledi

Tempo Temperatura Precipitazioni Vento Pressione Umidità
00:00 +22°C° 0 mm 0 m/s 753 mm Hg 98%
01:00 +22°C° 0 mm 0 m/s 753 mm Hg 98%
02:00 +22°C° 0 mm 0 m/s 752 mm Hg 98%
03:00 +22°C° 0.1 mm 0 m/s 752 mm Hg 98%
04:00 +22°C° 0.1 mm 0 m/s 752 mm Hg 98%
05:00 +22°C° 0.1 mm 0 m/s 752 mm Hg 98%
06:00 +23°C° 0.2 mm 0 m/s 753 mm Hg 96%
07:00 +24°C° 0.2 mm 0 m/s 753 mm Hg 93%
08:00 +25°C° 0.2 mm 0 m/s 754 mm Hg 91%
09:00 +26°C° 1.6 mm 0 m/s 754 mm Hg 87%
10:00 +29°C° 1.6 mm 1 m/s 753 mm Hg 83%
11:00 +30°C° 1.6 mm 1 m/s 753 mm Hg 79%
12:00 +30°C° 1.7 mm 1 m/s 753 mm Hg 78%
13:00 +31°C° 1.7 mm 1 m/s 752 mm Hg 77%
14:00 +31°C° 1.7 mm 1 m/s 751 mm Hg 76%
15:00 +30°C° 1.6 mm 1 m/s 751 mm Hg 79%
16:00 +29°C° 1.6 mm 1 m/s 751 mm Hg 83%
17:00 +28°C° 1.6 mm 1 m/s 751 mm Hg 86%
18:00 +27°C° 0.5 mm 1 m/s 751 mm Hg 89%
19:00 +26°C° 0.5 mm 1 m/s 752 mm Hg 91%
20:00 +25°C° 0.5 mm 1 m/s 753 mm Hg 94%
21:00 +25°C° 0 mm 1 m/s 753 mm Hg 95%
22:00 +25°C° 0 mm 1 m/s 753 mm Hg 96%
23:00 +22°C° 0 mm 0 m/s 753 mm Hg 97%
Mostrare altro